Wind_Speed
30 30 31 31 31 30 30 30 30 30 29 29 28 28 28 28 28 28 28 28 28 28 28 28 28 28 27 27 27 26 26 26 26 26 26 26 26 26 27 26 26 26 26
32 32 31 32 32 32 31 31 31 31 31 31 30 30 30 29 29 30 30 29 29 29 29 29 29 29 29 28 28 28 28 28 27 27 27 27 27 27 27 27 28 28 28
34 33 33 33 33 33 33 33 32 32 32 32 32 31 31 31 31 30 31 31 30 30 30 30 30 30 30 30 30 29 29 29 29 29 29 29 29 29 29 29 29 29 30
36 35 34 34 34 34 34 34 34 34 33 33 33 33 32 32 32 32 32 31 31 32 32 32 32 31 32 32 32 31 31 30 30 31 31 31 31 31 31 32 32 32 32
37 36 36 35 35 35 35 35 35 35 35 34 34 34 34 34 33 33 33 32 33 32 33 33 33 33 33 33 33 33 33 32 33 33 33 33 33 33 33 33 34 34 34
39 38 37 36 36 36 36 36 36 36 36 36 35 35 35 36 36 35 34 34 33 33 34 34 34 34 34 34 35 35 34 34 34 34 34 35 34 34 35 35 36 36 36
41 40 40 39 38 38 37 37 37 38 37 37 37 37 36 36 36 36 36 36 35 35 34 35 35 36 36 36 36 36 36 36 36 36 36 37 37 37 37 38 38 38 38
42 41 40 40 39 40 39 39 39 39 39 38 37 37 37 37 37 37 37 37 37 37 36 36 36 36 37 37 37 38 38 38 38 38 39 39 39 40 39 40 40 40 40
44 44 43 41 41 41 41 41 41 41 40 40 39 39 39 38 37 38 38 39 39 39 39 37 37 38 39 39 39 39 39 39 39 39 40 41 41 41 41 41 41 41 42
46 45 45 44 43 43 42 42 42 42 42 42 41 41 41 40 40 39 38 39 40 40 39 39 38 39 40 40 41 41 41 40 41 41 42 42 42 42 42 43 43 43 43
47 46 46 45 45 44 43 43 43 43 43 43 43 42 42 42 41 40 39 39 40 40 39 40 40 41 41 41 42 43 43 43 44 45 44 44 44 43 44 44 44 44 44
48 47 47 46 46 46 45 45 44 44 43 43 43 43 43 43 42 42 41 41 40 40 40 40 41 42 42 42 42 43 44 45 45 46 46 46 46 46 46 46 46 45 44
49 48 47 47 47 46 46 46 45 45 45 45 45 44 44 44 43 42 42 42 42 41 42 42 43 43 43 43 44 44 45 45 45 45 46 46 46 47 47 46 46 45 45
49 49 48 47 47 47 46 46 46 46 46 46 45 44 44 44 43 43 42 42 42 42 42 43 43 44 44 44 45 45 46 45 46 46 46 46 47 48 48 48 47 46 47
49 49 48 49 48 47 47 47 47 46 46 47 46 46 45 45 44 44 43 43 43 43 43 43 43 44 45 45 45 45 46 46 47 47 46 47 47 47 48 47 48 48 48
48 49 49 48 48 48 47 48 48 46 46 46 46 46 46 45 45 44 44 44 44 44 43 43 44 44 45 45 45 45 47 47 47 47 47 47 47 48 48 48 48 48 49
48 49 49 49 49 49 48 47 47 46 46 46 46 45 45 45 45 45 44 44 44 44 44 44 44 44 45 45 46 46 46 47 48 48 48 49 49 49 49 50 50 49 50
47 47 48 49 49 49 48 48 47 47 47 46 46 46 45 45 45 45 45 45 45 45 44 44 44 44 45 46 46 46 47 48 48 48 49 49 50 49 49 50 50 51 50
46 46 47 48 48 48 48 48 48 48 47 47 47 47 46 46 45 45 45 44 45 45 44 44 44 45 46 46 47 46 47 47 48 49 49 49 49 48 49 50 51 51 51
46 46 46 46 46 46 46 47 47 47 47 47 47 47 46 46 45 45 45 45 44 44 44 44 44 45 45 46 46 46 46 47 47 48 48 48 48 48 49 50 49 50 50
45 45 45 45 45 45 45 45 46 47 47 46 46 46 46 46 45 45 45 45 44 44 44 44 44 45 45 46 47 46 46 46 46 47 47 48 48 49 49 49 48 48 48
43 43 43 43 44 43 43 43 44 45 45 45 45 45 45 45 45 45 44 44 45 45 44 44 44 45 45 46 46 46 46 46 46 46 47 46 47 47 47 48 48 48 48
41 41 41 41 42 42 41 42 42 44 44 45 45 45 44 44 44 44 44 45 45 45 45 45 45 45 45 45 46 46 45 45 45 45 46 45 46 46 46 46 47 48 49
39 39 39 39 39 39 40 40 41 42 42 43 43 43 44 44 44 44 45 45 45 45 45 45 45 45 45 44 44 44 44 44 44 44 45 45 45 45 45 46 47 48 48
38 38 38 38 39 39 40 40 40 40 41 42 42 42 42 43 44 45 45 45 45 45 45 45 44 44 44 43 43 43 43 43 43 43 44 44 44 45 45 45 46 47 48
36 37 38 38 39 39 39 39 40 40 40 40 41 42 42 43 43 44 44 44 44 44 44 44 44 43 43 43 42 42 42 43 43 43 44 44 44 45 45 45 46 46 47
Wind_Direction
250 249 249 249 249 249 249 249 249 250 250 251 251 252 252 253 253 253 254 255 256 256 257 258 258 258 259 258 259 260 259 259 259 260 260 260 261 262 263 264 264 265 266
251 250 250 250 250 250 250 250 250 250 251 251 252 253 253 254 254 254 254 255 256 257 257 257 259 260 259 259 259 260 260 260 260 261 261 262 262 263 264 265 265 266 267
251 251 251 250 251 251 251 251 250 250 250 251 252 252 253 254 255 255 255 255 256 257 258 258 258 259 259 259 260 260 260 261 261 260 262 263 263 264 265 266 267 267 268
251 251 251 251 252 252 252 251 251 251 251 251 252 252 253 254 255 255 256 256 257 258 258 258 258 259 259 260 261 262 262 262 262 262 263 264 264 264 266 267 267 268 269
250 251 252 252 252 252 252 252 252 252 251 252 252 253 253 254 255 255 255 257 258 258 258 258 258 259 259 260 261 262 263 263 263 263 264 265 265 266 266 267 268 269 270
250 251 251 252 253 253 252 252 252 252 252 252 253 253 254 255 255 255 256 256 258 258 258 258 259 260 260 260 260 261 262 262 263 264 265 266 267 267 268 269 269 269 270
249 249 251 252 253 253 252 252 252 252 252 252 252 253 254 255 255 257 256 257 258 258 258 258 258 259 260 262 262 262 262 261 264 266 266 266 267 268 269 270 270 269 269
248 248 249 251 252 253 252 252 252 253 253 252 252 253 254 255 256 255 257 258 258 258 259 259 260 260 260 261 262 262 261 263 264 266 266 266 268 269 269 270 270 270 269
248 248 249 250 251 252 252 253 253 253 253 253 253 253 254 256 256 256 257 257 258 258 259 260 261 262 261 262 262 263 264 265 265 266 268 268 267 268 269 271 270 270 270
248 248 249 250 250 251 252 252 253 253 254 254 254 255 255 257 257 257 258 258 258 259 260 260 262 263 263 263 264 265 266 265 265 267 268 267 267 268 269 270 271 271 270
248 248 249 249 250 250 251 251 252 253 254 254 254 255 256 256 257 258 259 259 259 259 260 261 263 263 264 264 264 265 266 266 266 267 268 268 268 269 271 271 271 270 270
248 248 248 249 249 249 250 251 252 253 254 254 254 255 256 257 258 259 260 259 260 261 261 263 264 265 265 265 265 265 266 267 267 267 267 268 269 270 271 272 271 270 269
247 246 248 249 249 249 249 250 252 253 254 255 254 255 256 257 257 259 260 260 260 262 262 263 264 265 265 266 266 267 266 267 267 268 268 268 269 270 271 271 270 269 269
246 246 247 248 248 249 250 250 252 253 254 254 255 255 255 256 257 258 260 260 260 262 263 264 264 265 265 267 267 266 266 267 268 268 269 268 269 269 270 270 269 269 269
246 246 247 247 248 249 250 251 252 252 254 255 256 256 255 257 258 258 259 260 261 261 262 264 264 265 265 266 267 267 267 267 268 268 269 269 269 268 269 269 269 269 269
245 246 247 247 248 249 250 252 252 253 254 254 254 254 255 256 258 259 260 260 262 262 262 263 265 266 266 267 267 268 268 268 268 269 270 270 269 268 269 269 269 270 269
245 246 246 247 248 249 250 251 251 252 252 253 254 255 256 257 257 259 260 260 261 262 263 264 265 265 267 267 266 267 269 268 269 269 269 269 269 269 269 269 268 269 270
245 245 246 247 248 249 249 250 250 251 252 253 254 255 256 257 257 259 260 261 262 263 264 264 265 265 266 267 267 269 269 269 269 269 269 269 270 269 269 269 268 269 269
245 246 246 247 247 248 249 249 249 250 252 253 254 255 256 256 258 259 260 261 262 263 264 265 265 266 267 267 267 268 269 269 269 270 271 271 270 270 269 268 268 268 268
245 245 246 247 247 247 249 249 249 250 251 252 253 254 255 255 257 258 259 260 261 263 264 266 267 267 268 268 268 269 269 270 270 271 272 272 270 269 269 269 269 269 269
245 246 246 247 246 247 248 248 249 250 250 251 252 253 254 255 256 257 259 259 260 262 264 266 267 268 268 268 268 269 270 271 271 272 272 271 270 269 269 270 270 269 269
244 244 245 246 246 246 247 248 249 250 250 251 252 254 255 255 256 257 258 259 261 262 263 265 266 267 268 269 268 270 272 273 272 272 271 271 270 270 270 270 269 269 269
244 243 243 245 245 245 247 248 249 249 251 251 252 253 254 255 256 257 259 260 261 263 264 265 266 268 269 269 270 271 272 272 271 271 270 270 270 270 270 269 270 270 270
244 242 242 243 244 245 247 248 249 250 251 252 253 254 254 254 256 258 259 260 262 264 264 265 266 268 269 270 271 271 272 272 271 270 270 270 270 270 270 270 271 271 272
243 242 242 244 245 246 248 249 250 251 252 253 253 254 254 255 256 258 259 260 261 262 264 265 266 267 268 271 272 272 272 271 270 270 270 270 270 270 270 271 272 273 273
242 242 243 244 245 246 248 249 250 251 251 251 252 254 255 257 258 258 259 260 261 262 263 265 265 267 269 271 271 272 272 272 271 271 271 271 272 272 272 272 272 273 274
Height
5801 5802 5804 5805 5807 5808 5810 5811 5813 5814 5816 5817 5819 5820 5821 5823 5824 5825 5826 5827 5828 5828 5829 5829 5830 5831 5831 5832 5833 5833 5834 5834 5834 5835 5835 5836 5836 5836 5836 5836 5836 5836 5836
5794 5795 5797 5798 5800 5801 5803 5805 5806 5808 5809 5811 5812 5814 5815 5816 5817 5818 5819 5820 5821 5822 5823 5823 5824 5825 5825 5826 5827 5828 5828 5829 5829 5829 5830 5830 5830 5830 5830 5830 5830 5830 5830
5786 5788 5789 5791 5792 5794 5796 5798 5799 5801 5802 5804 5805 5807 5808 5809 5811 5812 5813 5814 5815 5816 5816 5817 5818 5818 5819 5820 5820 5821 5822 5823 5823 5823 5824 5824 5824 5824 5824 5824 5824 5824 5824
5778 5780 5782 5783 5785 5786 5788 5790 5792 5793 5795 5796 5798 5799 5801 5802 5803 5805 5806 5807 5808 5809 5810 5810 5811 5812 5812 5813 5814 5814 5815 5816 5816 5817 5817 5817 5817 5818 5818 5818 5818 5818 5817
5769 5772 5773 5775 5777 5778 5780 5782 5784 5785 5787 5789 5790 5792 5793 5794 5796 5797 5799 5800 5801 5802 5802 5803 5804 5805 5805 5806 5807 5808 5808 5809 5809 5810 5810 5810 5810 5810 5810 5811 5810 5810 5810
5760 5762 5765 5767 5768 5770 5772 5773 5775 5777 5779 5781 5782 5783 5785 5787 5788 5789 5791 5792 5793 5794 5795 5795 5796 5797 5798 5799 5799 5800 5800 5801 5802 5802 5802 5803 5803 5803 5803 5803 5803 5802 5802
5750 5753 5755 5757 5759 5761 5763 5765 5766 5768 5770 5772 5774 5775 5777 5778 5780 5781 5783 5784 5785 5786 5787 5787 5788 5789 5790 5790 5791 5792 5792 5793 5793 5794 5794 5794 5795 5794 5794 5794 5794 5794 5793
5740 5742 5745 5748 5750 5752 5753 5755 5757 5759 5761 5763 5765 5766 5768 5770 5771 5773 5774 5775 5776 5777 5778 5779 5780 5781 5781 5782 5782 5783 5784 5784 5785 5785 5785 5785 5786 5785 5785 5785 5784 5784 5784
5729 5732 5735 5737 5739 5742 5744 5746 5748 5749 5751 5753 5755 5758 5759 5761 5762 5764 5765 5766 5767 5769 5769 5770 5771 5771 5772 5773 5774 5774 5775 5775 5775 5775 5776 5776 5776 5776 5776 5775 5775 5774 5774
5718 5721 5724 5726 5729 5731 5733 5735 5738 5740 5741 5743 5745 5748 5750 5752 5753 5755 5756 5757 5758 5759 5760 5761 5762 5762 5763 5764 5764 5765 5765 5765 5765 5766 5766 5766 5766 5766 5766 5765 5765 5764 5763
5705 5709 5712 5715 5718 5720 5723 5725 5727 5729 5731 5733 5735 5737 5739 5741 5743 5745 5746 5747 5748 5749 5750 5751 5752 5753 5753 5754 5754 5755 5755 5755 5755 5755 5755 5755 5755 5755 5755 5754 5754 5753 5752
5693 5697 5700 5703 5706 5709 5711 5714 5716 5718 5720 5722 5724 5726 5728 5731 5733 5734 5736 5737 5738 5739 5740 5741 5742 5742 5743 5743 5744 5744 5744 5744 5744 5744 5744 5745 5744 5744 5743 5743 5742 5742 5741
5681 5685 5688 5691 5694 5697 5700 5702 5705 5707 5709 5711 5713 5715 5718 5720 5722 5723 5725 5726 5728 5729 5730 5731 5731 5732 5732 5733 5733 5733 5733 5733 5733 5733 5733 5733 5733 5732 5732 5731 5730 5730 5729
5669 5672 5676 5679 5682 5685 5688 5691 5693 5696 5698 5700 5702 5704 5706 5708 5710 5712 5714 5716 5717 5718 5719 5720 5720 5720 5721 5721 5722 5722 5722 5721 5721 5721 5721 5721 5720 5720 5719 5718 5718 5718 5717
5657 5660 5664 5667 5670 5673 5676 5679 5681 5684 5686 5689 5691 5693 5695 5697 5699 5701 5703 5704 5706 5707 5709 5709 5709 5709 5709 5710 5710 5710 5709 5709 5709 5709 5708 5708 5708 5707 5707 5706 5705 5705 5705
5644 5648 5651 5655 5658 5661 5664 5667 5670 5672 5674 5677 5679 5681 5683 5685 5687 5689 5691 5693 5694 5695 5697 5698 5698 5698 5698 5697 5697 5697 5697 5697 5697 5696 5696 5696 5695 5694 5694 5693 5692 5692 5691
5631 5635 5638 5642 5645 5649 5652 5655 5657 5660 5662 5664 5667 5669 5672 5673 5676 5677 5679 5680 5682 5683 5684 5686 5686 5686 5686 5685 5685 5685 5684 5684 5684 5683 5683 5682 5682 5681 5681 5680 5679 5678 5678
5619 5622 5626 5629 5633 5636 5639 5642 5645 5647 5650 5653 5655 5657 5660 5662 5664 5665 5667 5668 5669 5670 5672 5673 5673 5673 5673 5673 5672 5672 5671 5671 5671 5670 5669 5669 5668 5668 5667 5666 5665 5664 5664
5606 5610 5613 5617 5620 5623 5626 5629 5632 5635 5637 5640 5643 5645 5648 5650 5652 5653 5655 5656 5657 5658 5659 5660 5660 5660 5661 5660 5660 5659 5659 5658 5657 5657 5656 5655 5655 5654 5653 5652 5651 5651 5650
5594 5597 5601 5604 5607 5610 5613 5616 5619 5622 5625 5628 5630 5633 5635 5637 5639 5641 5642 5643 5645 5646 5646 5647 5648 5648 5648 5647 5647 5647 5646 5645 5645 5644 5643 5642 5641 5640 5639 5639 5638 5637 5636
5581 5585 5588 5591 5595 5598 5601 5603 5606 5609 5612 5615 5618 5620 5622 5625 5626 5628 5630 5631 5632 5633 5634 5635 5635 5635 5635 5635 5635 5634 5633 5633 5632 5630 5630 5629 5628 5627 5626 5625 5624 5623 5622
5569 5573 5576 5579 5582 5586 5589 5591 5594 5597 5600 5603 5605 5607 5610 5612 5614 5616 5617 5619 5620 5621 5622 5622 5623 5623 5623 5622 5622 5621 5620 5620 5620 5618 5616 5615 5614 5614 5613 5612 5611 5610 5609
5557 5561 5565 5568 5571 5574 5577 5580 5582 5585 5588 5590 5593 5595 5597 5599 5601 5603 5605 5606 5607 5608 5609 5610 5610 5610 5610 5610 5609 5609 5607 5606 5606 5604 5603 5603 5601 5601 5600 5599 5598 5597 5596
5546 5550 5553 5557 5560 5563 5566 5568 5571 5573 5576 5578 5581 5583 5585 5587 5589 5590 5592 5594 5595 5596 5596 5597 5597 5597 5596 5595 5595 5595 5594 5593 5593 5591 5590 5591 5589 5589 5588 5586 5585 5584 5583
5536 5539 5543 5546 5549 5552 5554 5557 5559 5562 5564 5567 5569 5571 5573 5575 5577 5578 5580 5581 5583 5583 5583 5583 5584 5584 5583 5582 5581 5581 5580 5580 5580 5580 5578 5577 5577 5576 5575 5574 5573 5571 5569
5526 5529 5532 5535 5538 5540 5543 5545 5548 5550 5553 5555 5557 5559 5561 5562 5564 5565 5566 5568 5569 5570 5570 5571 5571 5571 5570 5569 5569 5568 5567 5567 5567 5567 5566 5565 5564 5563 5563 5563 5560 5558 5556